Content
SEND FEEDBACK

Daily
Averages
Monthly
Summary
United States of America

CARLE PLACE, NEW YORK


Home > North America > United States > New York
Elevation: 125 feet     Latitude: 40 43N     Longitude: 073 36W

WEATHER
 
SELECT A DAY
Number of Records: 196,464;   Date Range: 1/1/95 - 10/29/14
 
SHARE

PRINT THIS DATA

[ ← Previous Day ]
WEATHER ALMANAC - JANUARY 31, 2013
[ Next Day → ]
[ °C ]   °F
Weather ElementAverageHighLow
Temperature46.9 °F55.9 °F (3:53 am)30 °F (11:53 pm)
Dewpoint34.5 °F55.4 °F (4:17 am)7 °F (11:53 pm)
Humidity66.7 %100 % (1:42 am)33 % (4:53 pm)
Barometer29.36 in29.78 in (11:53 pm)29.10 in (4:28 am)
Wind Speed26.2 mph39.1 mph (4:07 am)
Wind Gust61 mph (4:07 am)
Weather ElementAverage
Visibility7.4 mi
Wind DirectionWSW (240.9 °)

Weather ElementTotal
Precipitation1.03 in
Heating Degree Days22.1 (Base 65)
Averaged from 32 records on January 31, 2013
WEATHER CONDITIONS BREAKOUT
WIND DIRECTION BREAKOUT
WEATHER BY HOUR - JANUARY 31, 2013
[ °C ]   °F
Local TimeTemperatureDewpointHumidityBarometerVisibilityWind DirectionWind SpeedGust SpeedPrecipitationEventsConditions
1:42 AM51.8 °F51.8 °F100 %29.33 in2.5 miSSW (200°)17.3 mph28.8 mphOvercast
1:53 AM52.0 °F52.0 °F100 %29.31 in3.0 miSSW (200°)24.2 mph33.4 mphOvercast
2:29 AM53.6 °F51.8 °F94 %29.27 in5.0 miSSW (200°)20.7 mph32.2 mph0.01 inRainLight Rain
2:53 AM55.0 °F53.1 °F93 %29.23 in5.0 miSouth (190°)29.9 mph41.4 mph0.01 inOvercast
3:53 AM55.9 °F54.0 °F93 %29.14 in4.0 miSouth (180°)35.7 mph52.9 mph0.02 inRainLight Rain
4:07 AM55.4 °F53.6 °F94 %29.12 in2.0 miSouth (190°)39.1 mph61.0 mph0.05 inRainHeavy Rain
4:17 AM55.4 °F55.4 °F100 %29.11 in1.8 miSouth (180°)39.1 mph50.6 mph0.11 inRainHeavy Rain
4:28 AM55.4 °F55.4 °F100 %29.10 in2.0 miSouth (190°)34.5 mph54.1 mph0.15 inRainRain
4:39 AM55.4 °F55.4 °F100 %29.14 in1.8 miSSW (200°)38.0 mph49.5 mph0.20 inRainRain
4:46 AM55.4 °F55.4 °F100 %29.15 in3.0 miSSW (210°)39.1 mph50.6 mph0.20 inRainLight Rain
4:53 AM55.0 °F54.0 °F96 %29.16 in4.0 miSW (220°)26.5 mph50.6 mph0.20 inRainLight Rain
5:12 AM53.6 °F51.8 °F94 %29.18 in6.0 miSSW (210°)21.9 mph33.4 mph0.01 inRainLight Rain
5:53 AM54.0 °F53.1 °F97 %29.12 in7.0 miSouth (180°)10.4 mph0.06 inRainLight Rain
6:53 AM53.1 °F51.1 °F93 %29.10 in9.0 miSSW (210°)26.5 mph33.4 mph0.01 inMostly Cloudy
7:35 AM51.8 °F42.8 °F71 %29.16 in10.0 miWest (280°)28.8 mph47.2 mph0.00 inOvercast
7:53 AM50.0 °F36.0 °F59 %29.18 in10.0 miWest (280°)28.8 mph48.3 mph0.00 inOvercast
8:53 AM48.0 °F32.0 °F54 %29.25 in10.0 miWest (280°)31.1 mph49.5 mph0.00 inPartly Cloudy
9:53 AM46.9 °F28.9 °F50 %29.33 in10.0 miWest (280°)28.8 mph41.4 mphPartly Cloudy
10:53 AM46.0 °F24.1 °F42 %29.37 in10.0 miWNW (290°)23.0 mph38.0 mphScattered Clouds
11:53 AM46.0 °F21.0 °F37 %29.39 in10.0 miWest (280°)25.3 mph36.8 mphPartly Cloudy
12:53 PM45.0 °F18.0 °F34 %29.42 in10.0 miWNW (290°)19.6 mph43.7 mphClear
1:53 PM46.0 °F19.0 °F34 %29.44 in10.0 miWSW (250°)24.2 mph32.2 mphScattered Clouds
2:53 PM45.0 °F19.9 °F37 %29.47 in10.0 miWest (270°)21.9 mph35.7 mphMostly Cloudy
3:53 PM43.0 °F16.0 °F34 %29.52 in10.0 miWest (270°)28.8 mph35.7 mphScattered Clouds
4:53 PM39.9 °F12.9 °F33 %29.56 in10.0 miWest (270°)26.5 mph43.7 mphScattered Clouds
5:53 PM37.0 °F16.0 °F42 %29.62 in10.0 miWest (260°)24.2 mph39.1 mphScattered Clouds
6:53 PM35.1 °F12.0 °F39 %29.68 in10.0 miWest (280°)17.3 mph36.8 mphClear
7:53 PM34.0 °F12.0 °F40 %29.70 in10.0 miWest (280°)19.6 mph29.9 mphClear
8:53 PM33.1 °F12.9 °F43 %29.73 in10.0 miWest (260°)20.7 mph29.9 mphClear
9:53 PM30.9 °F14.0 °F50 %29.75 in10.0 miWest (270°)26.5 mph34.5 mphClear
10:53 PM30.9 °F10.0 °F42 %29.76 in10.0 miWest (270°)20.7 mph31.1 mphClear
11:53 PM30.0 °F7.0 °F38 %29.78 in10.0 miWNW (290°)19.6 mph31.1 mphClear
Hourly data recorded from KFRG, located miles away from Carle Place, New York







STORIES FROM OUR PARTNERS